• In Hungary
  • List of Countries
  • For 7 days
  • Water Temperature
  • Satellite Maps
  • Weather Map
  • News
  • Weather Widgets
  • user-avatar
    Login

    Hourly Weather Usti

    Today, 23 September, Sunday

    Time Temperature Precipitation Wind Pressure Humidity
    00:00 +17°C° 0 mm 4 mps 753 mmHg 71%
    01:00 +17°C° 0 mm 4 mps 752 mmHg 72%
    02:00 +17°C° 0 mm 4 mps 752 mmHg 72%
    03:00 +17°C° 0 mm 4 mps 752 mmHg 72%
    04:00 +15°C° 0 mm 5 mps 751 mmHg 72%
    05:00 +15°C° 0 mm 5 mps 751 mmHg 72%
    06:00 +15°C° 0 mm 5 mps 750 mmHg 72%
    07:00 +16°C° 0 mm 6 mps 750 mmHg 68%
    08:00 +17°C° 0 mm 6 mps 749 mmHg 64%
    09:00 +20°C° 0 mm 7 mps 748 mmHg 60%
    10:00 +21°C° 0 mm 8 mps 748 mmHg 56%
    11:00 +22°C° 0 mm 8 mps 748 mmHg 52%
    12:00 +24°C° 0 mm 8 mps 748 mmHg 48%
    13:00 +23°C° 0.1 mm 8 mps 748 mmHg 52%
    14:00 +21°C° 0.1 mm 8 mps 748 mmHg 57%
    15:00 +20°C° 0.1 mm 7 mps 748 mmHg 61%
    16:00 +17°C° 0.4 mm 6 mps 748 mmHg 69%
    17:00 +14°C° 0.4 mm 5 mps 748 mmHg 77%
    18:00 +10°C° 0.4 mm 5 mps 748 mmHg 85%
    19:00 +11°C° 1.2 mm 4 mps 748 mmHg 86%
    20:00 +11°C° 1.2 mm 3 mps 749 mmHg 87%
    21:00 +10°C° 1.2 mm 2 mps 749 mmHg 88%
    22:00 +10°C° 0.6 mm 2 mps 749 mmHg 89%
    23:00 +10°C° 0.6 mm 2 mps 749 mmHg 90%

    Tomorrow, 24 September, Monday

    Time Temperature Precipitation Wind Pressure Humidity
    00:00 +10°C° 0.6 mm 2 mps 749 mmHg 91%
    01:00 +9°C° 0 mm 2 mps 750 mmHg 92%
    02:00 +9°C° 0 mm 2 mps 750 mmHg 92%
    03:00 +9°C° 0 mm 3 mps 750 mmHg 93%
    04:00 +8°C° 0 mm 2 mps 750 mmHg 94%
    05:00 +8°C° 0 mm 2 mps 750 mmHg 94%
    06:00 +8°C° 0 mm 2 mps 750 mmHg 94%
    07:00 +9°C° 0 mm 2 mps 751 mmHg 89%
    08:00 +11°C° 0 mm 3 mps 751 mmHg 83%
    09:00 +12°C° 0 mm 3 mps 751 mmHg 78%
    10:00 +13°C° 0 mm 3 mps 751 mmHg 71%
    11:00 +14°C° 0 mm 3 mps 751 mmHg 64%
    12:00 +17°C° 0 mm 3 mps 750 mmHg 56%
    13:00 +17°C° 0 mm 4 mps 750 mmHg 56%
    14:00 +17°C° 0 mm 4 mps 750 mmHg 55%
    15:00 +16°C° 0 mm 5 mps 749 mmHg 54%
    16:00 +15°C° 0.1 mm 5 mps 748 mmHg 59%
    17:00 +14°C° 0.1 mm 5 mps 748 mmHg 63%
    18:00 +13°C° 0.1 mm 4 mps 747 mmHg 68%
    19:00 +13°C° 0.6 mm 5 mps 747 mmHg 71%
    20:00 +13°C° 0.6 mm 6 mps 746 mmHg 74%
    21:00 +11°C° 0.6 mm 8 mps 745 mmHg 77%
    22:00 +11°C° 0.8 mm 8 mps 744 mmHg 77%
    23:00 +11°C° 0.8 mm 9 mps 743 mmHg 77%

    Day after tomorrow, 25 September, Tuesday

    Time Temperature Precipitation Wind Pressure Humidity
    00:00 +11°C° 0.8 mm 9 mps 742 mmHg 77%
    01:00 +11°C° 0.7 mm 9 mps 742 mmHg 78%
    02:00 +11°C° 0.7 mm 9 mps 741 mmHg 80%
    03:00 +11°C° 0.7 mm 9 mps 741 mmHg 82%
    04:00 +10°C° 0.6 mm 8 mps 741 mmHg 82%
    05:00 +10°C° 0.6 mm 7 mps 740 mmHg 83%
    06:00 +10°C° 0.6 mm 6 mps 740 mmHg 83%
    07:00 +10°C° 0 mm 6 mps 741 mmHg 81%
    08:00 +9°C° 0 mm 7 mps 741 mmHg 79%
    09:00 +9°C° 0 mm 7 mps 741 mmHg 77%
    10:00 +10°C° 0 mm 7 mps 742 mmHg 76%
    11:00 +10°C° 0 mm 7 mps 742 mmHg 74%
    12:00 +10°C° 0 mm 7 mps 743 mmHg 73%
    13:00 +10°C° 0.1 mm 7 mps 743 mmHg 72%
    14:00 +10°C° 0.1 mm 7 mps 743 mmHg 72%
    15:00 +10°C° 0.1 mm 7 mps 744 mmHg 71%
    16:00 +9°C° 0 mm 7 mps 744 mmHg 71%
    17:00 +9°C° 0 mm 7 mps 745 mmHg 71%
    18:00 +9°C° 0 mm 6 mps 745 mmHg 71%
    19:00 +8°C° 0 mm 6 mps 746 mmHg 71%
    20:00 +8°C° 0 mm 6 mps 746 mmHg 72%
    21:00 +8°C° 0 mm 6 mps 747 mmHg 73%
    22:00 +7°C° 0 mm 6 mps 747 mmHg 74%
    23:00 +7°C° 0 mm 6 mps 748 mmHg 75%

    26 September, Wednesday

    Time Temperature Precipitation Wind Pressure Humidity
    00:00 +7°C° 0 mm 6 mps 748 mmHg 76%
    01:00 +5°C° 0 mm 6 mps 749 mmHg 76%
    02:00 +5°C° 0 mm 6 mps 749 mmHg 77%
    03:00 +6°C° 0 mm 5 mps 750 mmHg 78%
    04:00 +6°C° 0.2 mm 5 mps 750 mmHg 79%
    05:00 +5°C° 0.2 mm 5 mps 751 mmHg 79%
    06:00 +5°C° 0.2 mm 5 mps 752 mmHg 80%
    07:00 +5°C° 0.1 mm 5 mps 752 mmHg 77%
    08:00 +5°C° 0.1 mm 5 mps 753 mmHg 74%
    09:00 +4°C° 0.1 mm 6 mps 753 mmHg 71%
    10:00 +5°C° 0 mm 6 mps 754 mmHg 66%
    11:00 +7°C° 0 mm 6 mps 754 mmHg 62%
    12:00 +7°C° 0 mm 6 mps 755 mmHg 57%
    13:00 +8°C° 0 mm 6 mps 755 mmHg 53%
    14:00 +8°C° 0 mm 6 mps 755 mmHg 49%
    15:00 +9°C° 0 mm 5 mps 755 mmHg 46%
    16:00 +8°C° 0.1 mm 5 mps 755 mmHg 52%
    17:00 +7°C° 0.1 mm 4 mps 755 mmHg 58%
    18:00 +8°C° 0.1 mm 3 mps 755 mmHg 64%
    19:00 +7°C° 0.1 mm 3 mps 755 mmHg 68%
    20:00 +7°C° 0.1 mm 3 mps 755 mmHg 71%
    21:00 +7°C° 0.1 mm 3 mps 755 mmHg 75%
    22:00 +5°C° 0 mm 4 mps 755 mmHg 74%
    23:00 +5°C° 0 mm 4 mps 755 mmHg 73%

    27 September, Thursday

    Time Temperature Precipitation Wind Pressure Humidity
    00:00 +5°C° 0 mm 4 mps 754 mmHg 72%
    01:00 +5°C° 0.1 mm 5 mps 754 mmHg 73%
    02:00 +6°C° 0.1 mm 5 mps 753 mmHg 74%
    03:00 +5°C° 0.1 mm 6 mps 753 mmHg 75%
    04:00 +5°C° 0.3 mm 7 mps 752 mmHg 77%
    05:00 +5°C° 0.3 mm 7 mps 751 mmHg 79%
    06:00 +5°C° 0.3 mm 8 mps 751 mmHg 81%
    07:00 +5°C° 0.5 mm 8 mps 750 mmHg 80%
    08:00 +5°C° 0.5 mm 9 mps 750 mmHg 80%
    09:00 +5°C° 0.5 mm 9 mps 749 mmHg 80%
    10:00 +5°C° 0.6 mm 9 mps 749 mmHg 80%
    11:00 +6°C° 0.6 mm 9 mps 749 mmHg 81%
    12:00 +6°C° 0.6 mm 9 mps 748 mmHg 82%
    13:00 +6°C° 0.3 mm 9 mps 748 mmHg 81%
    14:00 +7°C° 0.3 mm 8 mps 748 mmHg 81%
    15:00 +7°C° 0.3 mm 8 mps 747 mmHg 80%
    16:00 +7°C° 0.5 mm 8 mps 747 mmHg 82%
    17:00 +7°C° 0.5 mm 8 mps 747 mmHg 84%
    18:00 +7°C° 0.5 mm 8 mps 746 mmHg 86%
    19:00 +7°C° 0.6 mm 8 mps 746 mmHg 86%
    20:00 +8°C° 0.6 mm 7 mps 745 mmHg 86%
    21:00 +8°C° 0.6 mm 7 mps 745 mmHg 87%
    22:00 +8°C° 0.2 mm 7 mps 745 mmHg 87%
    23:00 +9°C° 0.2 mm 7 mps 744 mmHg 87%

    28 September, Friday

    Time Temperature Precipitation Wind Pressure Humidity
    00:00 +9°C° 0.2 mm 7 mps 744 mmHg 87%
    01:00 +9°C° 0.4 mm 7 mps 744 mmHg 88%
    02:00 +9°C° 0.4 mm 7 mps 744 mmHg 88%
    03:00 +10°C° 0.4 mm 6 mps 743 mmHg 89%
    04:00 +10°C° 0.5 mm 6 mps 743 mmHg 88%
    05:00 +10°C° 0.5 mm 6 mps 744 mmHg 88%
    06:00 +10°C° 0.5 mm 6 mps 744 mmHg 87%
    07:00 +10°C° 0.1 mm 7 mps 744 mmHg 83%
    08:00 +10°C° 0.1 mm 7 mps 745 mmHg 80%
    09:00 +10°C° 0.1 mm 7 mps 745 mmHg 76%
    10:00 +11°C° 0.1 mm 7 mps 745 mmHg 70%
    11:00 +12°C° 0.1 mm 7 mps 746 mmHg 64%
    12:00 +12°C° 0.1 mm 7 mps 746 mmHg 58%
    13:00 +14°C° 0 mm 7 mps 746 mmHg 56%
    14:00 +14°C° 0 mm 7 mps 746 mmHg 54%
    15:00 +14°C° 0 mm 7 mps 746 mmHg 52%
    16:00 +13°C° 0 mm 6 mps 746 mmHg 57%
    17:00 +12°C° 0 mm 4 mps 746 mmHg 62%
    18:00 +11°C° 0 mm 3 mps 746 mmHg 67%
    19:00 +11°C° 0.4 mm 3 mps 746 mmHg 72%
    20:00 +10°C° 0.4 mm 4 mps 746 mmHg 76%
    21:00 +10°C° 0.4 mm 4 mps 746 mmHg 81%
    22:00 +8°C° 0.1 mm 4 mps 747 mmHg 81%
    23:00 +9°C° 0.1 mm 3 mps 747 mmHg 80%
    Show more